Погода в Заставне

Украина / Черновицкая область     48°31′12″N   25°50′41″E
темп.,
°C
ветер,
м/с
пор.,
м/с
влажн.,
%
обл.,
%
осадки,
мм/ч
давл.,
гПа
погр.,
м
18 августа, чт
чт1800:00+17зсз349228 0.0 101263
03:00+16зсз359510 0.0 1012102
06:00+16зсз249515 0.0 101369
09:00+20сз34783 0.0 1013375
12:00+27сз454933 0.0 10131544
15:00+27ссз4544100 0.1 10121514
18:00+29ссз454063 0.0 10121463
21:00+25с2251100 0.0 101319
19 августа, пт
пт1900:00+21с11650 0.0 101311
03:00+19зсз22740 0.0 101311
06:00+18зсз227995 0.0 101411
09:00+23ссв12545 0.0 1014299
12:00+29всв22363 0.0 10131486
15:00+32св33290 0.0 10122237
18:00+32св44305 0.0 10112337
21:00+24всв49515 0.0 1011139
20 августа, сб
сб2000:00+21ююз11610 0.0 101311
03:00+20в22660 0.0 101316
06:00+18юв12741 0.0 101211
09:00+23вюв34575 0.0 1013366
12:00+29вюв44410 0.0 10121493
15:00+31вюв43340 0.0 10112007
18:00+31вюв43341 0.0 10102164
21:00+24в34530 0.0 101149
21 августа, вс
вс2100:00+21в34577 0.0 101171
03:00+19юв11630 0.0 101111
06:00+18в11680 0.0 101013
09:00+24в23480 0.0 1010334
12:00+31вюв44350 0.0 10091540
15:00+33юв433170 0.0 10072659
18:00+32вюв343368 0.0 10072042
21:00+22юв116669 1.4 100711
22 августа, пн
пн2200:00+20в12795 2.1 100715
03:00+18юв12855 2.1 100712
06:00+18вюв118750 0.4 100811
09:00+22вюв24747 0.5 1009308
12:00+29вюв45467 0.0 10081204
15:00+32юв4435100 0.0 10082706
18:00+28вюв224878 0.3 100732
21:00+22ю2272100 1.3 100925